Location: ??
(34.9170°N, 135.5016°E)
Time: 23:49:17
(UTC+00:00)

RS-15 - Pass Details

Date: 20 April 2021
Orbit: 1888 x 2157 km, 64.8° (Epoch: 12 May)

Event Time Altitude Azimuth Distance (km) Brightness Sun altitude
Rises 19:31:18 0° 327° (NNW) 5,573 10.3 -10.1°
Reaches altitude 10° 19:34:43 10° 324° (NW) 4,597 9.8 -9.5°
Maximum altitude 19:46:27 60° 249° (WSW) 2,389 8.2 -7.2°
Drops below altitude 10° 19:58:23 10° 173° (S) 4,657 9.9 -4.9°
Sets 20:01:53 0° 169° (S) 5,649 10.4 -4.2°
